Find Fuji-OSCAR-12

NORAD ID: 16909 Int'l Des: 1986-061 Owner: JARL Country: J operational
LEOCIRCULAR

Live Position

Loading 3D Globe...

About Fuji-OSCAR-12

Description loading...

Upcoming Passes

Passes for default location (London). Set your location on the main map for personalized predictions.

Altitude History

Loading altitude history...

Two-Line Element Set

1 16909U 86061B 26107.01346238 -.00000082 00000-0 10580-3 0 9997
2 16909 50.0178 341.4343 0011142 6.5684 131.7088 12.44485711804476
Epoch: Apr 17, 2026 • Age: 15 hours

Current Status

Altitude 1494.8 km
Velocity 7.12 km/s
Sub-Earth Point 25.51°N, 53.46°E
Launch Date Aug 12, 1986
Age 39.6 years
Type other

Technical Details

Classification Payload
Mass 50.00 kg
Dry Mass 50.00 kg
Total Mass 50.00 kg
Length 0.50 m
Diameter 0.40 m
Span 0.50 m
Shape Poly
Manufacturer JARL
Bus Type JAS
Phase Status In Orbit
Owner/State JARL/J

Most Searched